Location: Chippewa Lake
(41.0698°N, 81.9010°W)
Time: 11:07:17
(UTC+00:00)

Envisat - Pass Details

Date: 04 June 2023
Orbit: 763 x 764 km, 98.2° (Epoch: 21 September)

Event Time Altitude Azimuth Distance (km) Brightness Sun altitude
Rises 08:31:11 0° 24° (NNE) 3,236 7.7 -13.3°
Reaches altitude 10° 08:33:47 10° 35° (NE) 2,306 6.9 -13.0°
Maximum altitude 08:38:11 29° 95° (E) 1,372 4.8 -12.4°
Drops below altitude 10° 08:42:33 10° 156° (SSE) 2,293 5.3 -11.8°
Sets 08:45:07 0° 167° (SSE) 3,214 5.9 -11.5°
